Location: Campan
(43.0159°N, 0.1785°E)
Time: 08:05:56
(UTC+00:00)

Daily predictions for brighter satellites

Satellite Brightness Start Highest point End
(mag) Time Altitude Azimuth Time Altitude Azimuth Time Altitude Azimuth
Cosmos 389 Rocket 3.2 19:56:21 10° N 19:59:39 36° ENE 20:02:55 10° SE
Cosmos 1151 Rocket 4.1 19:57:03 10° SSW 20:01:11 48° WNW 20:05:20 10° N
Cosmos 1503 Rocket 4.3 19:56:16 10° S 20:01:18 49° ESE 20:06:27 10° NNE
Landsat 7 3.9 19:57:40 10° SSE 20:02:20 69° ENE 20:07:03 10° N
H-2A R/B 3.5 20:03:31 10° S 20:07:43 49° W 20:11:50 10° NNW
BREEZE-M (TANK) 4.0 20:04:53 10° W 20:08:14 64° NNW 20:19:41 10° ENE
Cosmos 2369 3.7 20:05:25 10° SSW 20:11:01 71° ESE 20:16:40 10° NNE
Cosmos 1697 Rocket 3.2 20:08:49 10° SW 20:14:26 65° WNW 20:20:05 10° NNE
Cosmos 1072 Rocket 4.5 20:08:41 10° S 20:14:43 69° E 20:20:49 10° NNE
Cosmos 2344 3.5 20:07:51 10° SSW 20:15:27 73° ESE 20:22:57 10° NE
Cosmos 1933 Rocket 3.8 20:11:21 10° N 20:15:45 55° E 20:20:07 10° SSE
SJ 16-02 1.6 20:17:03 10° S 20:21:12 46° ESE 20:25:25 10° NNE
SPOT 1/Viking Rocket 3.7 20:18:01 10° SSE 20:23:06 60° ENE 20:28:11 10° N
NOSS 2-1 (D) 4.2 20:20:59 10° SSE 20:23:33 20° ESE 20:25:58 10° ENE
Cosmos 1633 Rocket 4.3 20:19:57 10° NNW 20:24:04 40° W 20:28:07 10° SSW
Timation 2 Rocket 4.2 20:18:42 10° NNW 20:25:19 71° ENE 20:31:48 11° SE
Cosmos 2297 Rocket 3.9 20:22:08 10° NW 20:26:57 29° WSW 20:31:43 10° SSW
Resurs 1-3 4.4 20:22:53 10° S 20:27:08 50° W 20:31:25 10° NNW
Okean 1 3.7 20:26:33 10° SSE 20:30:22 46° E 20:34:14 10° NNE
Ariane Rocket 3.1 20:25:32 10° SSE 20:30:33 66° ENE 20:35:36 10° N
Meteor 1-19 Rocket 4.4 20:26:05 10° SSE 20:31:17 51° E 20:36:30 10° NNE
Cosmos 1536 3.1 20:27:35 10° NNW 20:31:37 70° W 20:35:37 10° S
SL-4 R/B 3.3 20:27:56 10° WNW 20:32:07 35° SW 20:35:44 12° SSE
PSLV R/B 4.1 20:29:49 10° N 20:33:51 73° WNW 20:37:52 10° SSW
IRS-1A Rocket 4.4 20:30:52 10° SSE 20:36:32 87° WSW 20:42:22 10° NNW
Cosmos 1470 Rocket 4.4 20:33:22 10° NNW 20:37:33 50° W 20:41:42 10° SSW
ISS -3.0 20:35:33 10° NW 20:38:49 48° NNE 20:41:29 14° E
Meteor 2-9 Rocket 4.4 20:34:07 10° N 20:39:48 59° ENE 20:44:33 14° SSE
SWAS 4.5 20:35:35 10° NNW 20:39:54 84° WSW 20:43:28 15° SSE
Cosmos 44 Rocket 4.0 20:35:49 10° NNW 20:40:16 40° NE 20:43:49 15° ESE
Cosmos 1184 Rocket 3.5 20:37:56 10° SSW 20:40:51 49° WNW 20:43:48 10° N
RESURS DK-1 2.2 20:37:55 10° SSW 20:42:02 77° ESE 20:46:09 10° NNE
Cosmos 2034 Rocket 4.0 20:37:21 10° S 20:43:37 74° E 20:49:58 10° N
GENESIS II 4.4 20:41:45 10° S 20:45:23 44° ESE 20:49:07 10° NE
Cosmos 921 Rocket 3.2 20:41:02 10° NNW 20:45:33 79° WSW 20:49:27 13° S
ARGOS Delta rocket 4.3 20:40:08 10° N 20:45:38 78° WNW 20:50:59 10° SSW
Cosmos 1340 3.9 20:42:37 10° SSW 20:46:11 42° WNW 20:49:46 10° N
SL-16 R/B 3.0 20:42:33 11° SSE 20:47:12 31° ESE 20:52:08 10° NE
EXPRESS MD2 3.9 20:47:59 10° WNW 20:53:36 49° SW 20:55:34 22° SSE
Cosmos 783 Rocket 4.5 20:50:45 10° NNW 20:55:59 89° ENE 20:59:55 18° SSE
Cosmos 1809 Rocket 4.5 20:50:05 10° N 20:56:16 87° W 21:02:04 12° S
ATLAS CENTAUR R/B 4.1 20:54:35 10° N 20:57:01 14° NNE 20:59:25 10° ENE
Resurs 01 Rocket 2.5 20:56:03 10° S 21:00:16 46° W 21:04:31 10° NNW
ATLAS 2AS CENTAUR R/B 3.1 20:53:52 10° SW 21:01:42 83° NW 21:09:21 10° NE
CARTOSAT-1 3.5 20:58:43 18° SSE 21:01:52 85° ENE 21:06:12 10° NNW
Cosmos 1975 3.3 20:58:18 10° N 21:02:12 43° ENE 21:04:09 25° SE
Spot 2 Rocket 3.8 21:00:51 21° SE 21:04:05 53° ENE 21:09:00 10° N
Cosmos 1777 Rocket 4.0 20:59:07 10° SSW 21:04:19 90° WNW 21:09:36 10° NNE
CZ-4B R/B 3.4 21:02:18 10° N 21:05:03 27° WNW 21:07:45 10° SW
Cosmos 773 Rocket 4.1 20:59:58 10° NNW 21:05:12 77° WSW 21:08:57 19° SSE
Cosmos 1869 Rocket 3.6 21:01:42 10° N 21:06:12 90° WNW 21:09:20 20° S
Cosmos 2278 3.9 21:03:16 10° SSW 21:08:55 76° WNW 21:14:38 10° NNE
Cosmos 2360 Rocket 3.4 21:08:16 20° ESE 21:09:36 22° E 21:13:46 10° NE
Cosmos 2263 Rocket 2.2 21:07:27 10° NNW 21:13:03 82° WSW 21:16:42 22° SSE
Cosmos 2228 Rocket 3.3 21:11:56 11° SSW 21:16:22 76° W 21:20:57 10° N
SL-24 R/B - RUBIN 2 3.6 21:12:50 10° NNW 21:17:14 71° NE 21:19:34 28° SE
SPOT 3 Rocket 3.7 21:14:51 19° S 21:18:36 73° WSW 21:23:46 10° NNW
Cosmos 1441 Rocket 4.2 21:19:20 27° ESE 21:19:42 27° E 21:22:53 10° NNE
Meteor 1-18 Rocket 4.2 21:14:41 11° S 21:20:17 89° E 21:25:56 10° N
Cosmos 158 Rocket 3.9 21:15:21 10° NNW 21:20:32 85° ENE 21:23:33 26° SSE
NOSS 2-1 (E) 2.6 21:19:12 10° SW 21:22:32 86° SE 21:25:45 10° NE
Cosmos 1378 3.1 21:20:40 21° SSW 21:22:58 78° W 21:26:39 10° N
ATLAS 3B R/B 3.1 21:16:29 10° NNW 21:23:49 64° NE 21:28:52 23° SE
Helios 1A Rocket 2.8 21:23:00 29° S 21:24:58 83° WSW 21:29:00 10° NNW
Gblst 52 Del rocket 4.4 21:22:18 10° SW 21:29:12 66° SE 21:35:13 10° ENE
Cosmos 1707 Rocket 3.5 21:26:57 25° S 21:29:29 80° E 21:33:54 10° N
Cosmos 1346 Rocket 2.7 21:31:56 29° S 21:33:53 87° E 21:37:56 10° N
ERS-1 Rocket 2.9 21:31:59 29° SSE 21:34:36 85° ENE 21:39:40 10° NNW
Terra 1.8 21:35:23 33° SSE 21:37:26 71° ENE 21:42:12 10° N
Cosmos 1092 Rocket 4.1 21:32:19 10° NNW 21:38:27 72° W 21:42:35 22° S
Cosmos 1356 4.4 21:39:31 31° ENE 21:39:31 31° ENE 21:42:05 10° NNE
Cosmos 1980 Rocket 4.2 21:35:54 10° WSW 21:40:45 29° NW 21:45:38 10° N
ARIANE 5 R/B 2.8 21:39:35 37° SE 21:41:10 62° ENE 21:45:37 10° N
BREEZE-M DEB (TANK) 4.3 21:41:48 10° NW 21:43:32 19° N 21:45:30 10° ENE
Cosmos 1634 Rocket 4.0 21:39:36 17° SSW 21:44:36 79° W 21:50:49 10° N
SPOT 5 3.2 21:42:54 27° S 21:45:47 67° WSW 21:50:53 10° NNW
Cosmos 2292 Rocket 3.7 21:43:24 10° NNW 21:46:11 38° W 21:46:51 33° SW
ASTRO F (AKARI) 4.2 21:47:54 65° SSW 21:48:11 71° WSW 21:51:21 10° NNW
Cosmos 2322 Rocket 2.1 21:46:24 22° SSW 21:50:06 74° ESE 21:55:43 10° NNE
USA 81 4.1 21:47:17 25° SSW 21:50:28 77° W 21:55:46 10° N
Cosmos 2142 Rocket 4.5 21:47:18 27° S 21:51:03 77° E 21:57:27 10° N
Cosmos 1844 Rocket 3.3 21:46:25 10° NNW 21:51:46 45° ENE 21:54:07 29° ESE
Cosmos 1538 Rocket 4.0 21:46:56 10° NNW 21:52:10 73° WSW 21:54:18 36° S
Meteor 1-4 Rocket 2.8 21:49:43 10° N 21:53:08 49° ENE 21:53:16 49° E
Geosat FO 4.4 21:52:46 62° SSW 21:53:09 71° WSW 21:56:29 10° NNW
Cosmos 1733 Rocket 3.2 21:54:23 10° NNW 21:58:50 73° W 22:00:16 42° S
SJ 16-02 4.1 21:57:00 10° WSW 22:00:01 18° WNW 22:03:03 10° NNW
Cosmos 2333 Rocket 3.0 22:00:15 31° ESE 22:00:44 32° ESE 22:05:42 10° NE
Cosmos 2026 Rocket 4.5 21:54:50 10° NNW 22:00:52 56° W 22:04:44 23° SSW
Cosmos 1805 3.2 21:59:25 10° N 22:03:16 62° E 22:03:37 59° ESE
Cosmos 1733 3.0 22:02:42 10° N 22:06:29 68° E 22:06:39 67° ESE
Cosmos 1900 4.4 22:05:25 44° S 22:06:47 61° ESE 22:11:50 10° NE
Cosmos 1937 Rocket 3.9 22:06:02 41° SE 22:06:48 44° ESE 22:11:47 10° NNE
Cosmos 923 Rocket 4.1 22:04:47 10° NNW 22:10:08 72° ENE 22:11:46 45° SE
Cosmos 2219 Rocket 3.1 22:11:41 29° ESE 22:11:45 29° ESE 22:16:30 10° NE
Cosmos 1908 Rocket 3.7 22:08:16 10° N 22:12:32 54° E 22:13:01 50° ESE
Cosmos 1862 Rocket 4.1 22:10:46 31° SW 22:12:39 56° W 22:17:05 10° N
Cosmos 1655 Rocket 4.2 22:09:16 10° N 22:15:25 57° ENE 22:17:31 39° SE
ISS -1.8 22:12:39 10° W 22:14:24 21° WSW 22:14:24 21° WSW
Meteor 2-10 4.0 22:10:39 10° N 22:15:51 67° ENE 22:17:06 49° SE
SAR-Lupe-4 3.5 22:12:40 10° N 22:16:15 81° WNW 22:16:24 78° WSW
GRACE-FO 1 4.5 22:14:31 10° N 22:18:09 80° W 22:18:13 80° WSW
GRACE-FO 2 4.5 22:14:57 10° N 22:18:35 79° W 22:18:38 79° WSW
USA 215 3.6 22:13:59 10° ENE 22:20:02 38° SE 22:20:40 38° SE
Cosmos 990 Rocket 4.2 22:17:24 27° SW 22:20:18 69° WNW 22:25:33 10° NNE
Cosmos 1766 3.6 22:17:35 10° N 22:21:25 51° ENE 22:21:25 51° ENE
Cosmos 1844 3.9 22:16:15 10° NNW 22:22:02 66° ENE 22:23:54 43° SE
STPSAT 2 (USA 217) 4.4 22:22:49 63° S 22:23:31 83° ESE 22:28:02 10° NNE
Iridium 4 Rocket 3.6 22:21:35 10° N 22:26:14 55° E 22:27:00 50° ESE
CZ-4C R/B 3.9 22:19:52 10° NNW 22:26:35 42° NE 22:32:38 17° ESE
ALOS 2 4.3 22:26:16 20° E 22:27:03 21° ENE 22:30:20 10° NNE
Cosmos 2242 Rocket 3.8 22:27:40 52° ESE 22:27:51 52° E 22:32:17 10° NNE
Cosmos 1726 2.6 22:24:40 10° N 22:27:54 50° NE 22:27:54 50° NE
Cosmos 1867 4.4 22:30:55 33° ESE 22:30:55 33° ESE 22:35:18 10° NE
Cosmos 2112 Rocket 4.1 22:25:19 10° NNW 22:30:39 70° ENE 22:31:51 52° SE
Cosmos 1680 Rocket 3.4 22:25:43 10° NNW 22:31:02 82° ENE 22:32:12 55° SSE
SL-16 R/B 3.4 22:25:51 10° SW 22:31:09 40° WNW 22:36:30 10° NNE
Iridium 51 4.3 22:37:07 62° NW 22:37:07 62° NW 22:40:19 10° N
ATLAS CENTAUR R/B 1.9 22:32:00 10° NNW 22:36:50 62° NE 22:37:37 53° E
Cosmos 2266 Rocket 3.9 22:31:15 10° N 22:37:30 85° E 22:39:21 48° SSE
Okean 3 3.3 22:38:43 75° E 22:38:43 75° E 22:42:57 10° NNE
Cosmos 858 Rocket 4.4 22:38:12 58° S 22:39:14 77° ESE 22:44:32 10° NNE
Cosmos 1898 Rocket 3.7 22:38:09 36° SW 22:40:17 69° WNW 22:45:36 10° NNE
Cosmos 1461 4.3 22:36:38 10° NNW 22:40:19 30° NE 22:41:19 27° ENE
Okean 1-7 3.0 22:41:19 68° SW 22:41:45 76° W 22:46:08 10° N
Cosmos 2237 Rocket 4.2 22:45:22 13° E 22:45:22 13° E 22:47:31 10° ENE
Cosmos 1818 3.5 22:43:35 10° NW 22:49:05 86° SW 22:50:03 62° SSE
Cosmos 2360 Rocket 2.7 22:49:58 25° SW 22:53:06 56° WNW 22:58:41 10° NNE
COSMOS 2428 3.1 22:52:54 45° ESE 22:53:08 45° ESE 22:58:31 10° NE
Cosmos 1470 3.4 22:53:29 10° N 22:56:42 46° NE 22:56:42 46° NE
Cosmos 2333 4.2 23:01:59 46° SW 23:03:42 76° WNW 23:09:21 10° NNE
Cosmos 1674 4.3 23:10:30 26° ENE 23:10:30 26° ENE 23:12:44 10° NNE
Cosmos 372 Rocket 4.0 23:08:30 57° SW 23:09:28 73° WNW 23:14:39 10° NNE
Cosmos 1842 3.8 23:13:53 54° NW 23:13:53 54° NW 23:17:18 10° N
ATLAS 3B R/B 3.9 23:07:49 10° NW 23:14:11 32° WSW 23:16:07 28° SW
Terra 4.2 23:14:15 11° WSW 23:15:41 13° W 23:17:45 10° WNW
Cosmos 2278 Rocket 3.5 23:12:03 10° N 23:17:09 32° NE 23:19:33 24° E
Meteor 1-21 4.2 23:19:31 60° SE 23:20:22 68° E 23:26:08 10° NNE
NOSS 3-1 (A) 4.3 23:15:55 10° NNW 23:23:25 68° NE 23:28:09 30° SE
NOSS 3-1 (C) 4.1 23:21:54 10° NW 23:29:32 77° WSW 23:32:39 44° SSE
Cosmos 1125 Rocket 4.2 23:30:32 39° E 23:30:32 39° E 23:35:07 10° NE
NOSS 0 Rocket 4.2 23:32:10 49° SE 23:32:44 50° ESE 23:38:44 10° NE
Cosmos 1953 4.1 23:29:36 10° NNE 23:32:39 23° ENE 23:32:39 23° ENE
Cosmos 2221 Rocket 3.9 23:34:35 59° ENE 23:34:35 59° ENE 23:38:30 10° NNE
Cosmos 1553 Rocket 4.0 23:33:23 56° SE 23:34:28 67° E 23:40:37 10° NNE
SL-16 R/B 4.4 23:34:34 11° E 23:34:44 11° E 23:36:03 10° E
Cosmos 2322 Rocket 4.5 23:30:47 10° W 23:34:46 19° NW 23:38:46 10° N
Cosmos 1844 Rocket 3.9 23:30:48 10° NW 23:35:23 27° WSW 23:35:46 26° WSW
Cosmos 1980 4.3 23:37:01 40° ESE 23:37:01 40° ESE 23:42:14 10° NE
Cosmos 1244 Rocket 4.4 23:31:08 10° N 23:37:28 89° E 23:38:46 60° S
Spot 4 4.4 23:40:24 44° W 23:40:24 44° W 23:45:00 10° NNW
Cosmos 2322 4.2 23:40:23 39° WSW 23:42:12 56° WNW 23:47:52 10° NNE
Nadezhda 2 Rocket 4.3 23:36:22 10° N 23:42:31 81° W 23:43:39 61° S
Cosmos 2333 Rocket 3.3 23:42:12 25° WSW 23:44:53 39° WNW 23:50:12 10° NNE
Cosmos 371 Rocket 3.7 23:47:03 49° E 23:47:03 49° E 23:51:23 10° NNE
Cosmos 1758 3.8 23:45:38 10° N 23:48:53 57° NNW 23:48:53 57° NNW
Cosmos 1300 Rocket 4.4 23:48:17 10° NNW 23:52:01 41° WNW 23:52:01 41° WNW
ERS-2 3.3 23:50:18 10° N 23:53:03 39° NW 23:53:03 39° NW
Cosmos 1242 Rocket 3.9 23:51:05 10° NNW 23:53:25 36° NNW 23:53:25 36° NNW
